User: anonymous   Login
Location: Unspecified
(0.0000°N, 0.0000°E)
Time: 18:51:02
(UTC+00:00)
Language:

SNUSAT-1 - Orbit

View from above orbital plane
View from above orbital plane
View from above satellite
View from above satellite

Ground track
Ground track

The orbit data is extracted from the following two-line orbital elements,

1 42727U 98067MG  19077.85803146  .00485962  12520-3  60440-3 0  9995
2 42727  51.6217  14.6845 0006368 165.7716 194.3478 16.07112605103919
Epoch (UTC): 18 March 2019 20:35:33
Eccentricity: 0.0006368
inclination: 51.6217°
perigee height: 250 km
apogee height: 259 km
right ascension of ascending node: 14.6845°
argument of perigee: 165.7716°
revolutions per day: 16.07112605
mean anomaly at epoch: 194.3478°
orbit number at epoch: 10391

The dashed part of the orbit path shows where the satellite is in the earth's shadow,  

DLR